Regional Weather Roundup
Issued by NWS Albany, NY

Home | Current Version | Previous Version | Text Only | Print | Product List | Glossary On
Versions: 1 2 3 4 5 6 7 8 9 10 11 12 13 14 15 16 17 18 19 20 21 22 23 24 25 26 27 28 29 30 31 32 33 34 35 36 37 38 39 40 41 42 43 44 45 46 47 48 49 50
000
ASUS41 KALY 290110
RWRALY

NEW YORK STATE HOURLY WEATHER ROUNDUP
NATIONAL WEATHER SERVICE ALBANY NY
900 PM EDT SUN AUG 28 2016

NOTE: "FAIR" INDICATES FEW OR NO CLOUDS BELOW 12,000 FEET WITH NO
SIGNIFICANT WEATHER AND/OR NO OBSTRUCTIONS TO VISIBILITY.

NYZ032-033-038>043-046>054-057>066-NYZ062>081-082-084-290200-
EAST


CITY           SKY/WX    TMP DP  RH WIND       PRES   REMARKS
ALBANY         MOCLDY    80  63  55 S8        30.09R
GLENS FALLS    MOCLDY    76  67  73 S6        30.08R
POUGHKEEPSIE   PTCLDY    77  62  59 SE3       30.12R
NEWBURGH       CLEAR     79  68  69 CALM      30.15S
MONTGOMERY     PTCLDY    73  67  81 SW3       30.14R
WHITE PLAINS   CLEAR     73  62  68 S6        30.16S
ISLIP          PTCLDY    74  64  71 S7        30.16S
NEW YORK CITY  PTCLDY    78  67  68 S12       30.15R
CENTRAL PARK   CLEAR     77  64  64 MISG      30.19R
$$

NYZ005>009-017-018-044>046-055-056-290200-
CENTRAL


CITY           SKY/WX    TMP DP  RH WIND       PRES   REMARKS
FULTON         CLOUDY    76  69  79 VRB5      30.10R
SYRACUSE       CLOUDY    79  71  76 NW6       30.10R
ROME           CLOUDY    72  71  97 NE3       30.12R
ELMIRA         CLOUDY    77  72  84 SW6       30.13R
BINGHAMTON     PTCLDY    76  67  73 SW6       30.17R
MONTICELLO     CLEAR     73  63  68 SW3       30.19S
$$

NYZ026>034-041>043-087-290200-
NORTH


CITY           SKY/WX    TMP DP  RH WIND       PRES   REMARKS
WATERTOWN      CLEAR     75  69  81 SW8       30.07R
FORT DRUM      NOT AVBL
MASSENA        PTCLDY    74  69  85 SW7       30.03R
SARANAC LAKE   CLOUDY    74  66  76 SW8       30.11R
PLATTSBURGH    CLOUDY    70  67  90 CALM      30.03R
$$

NYZ001>004-010>016-019>021-085-290200-
WEST


CITY           SKY/WX    TMP DP  RH WIND       PRES   REMARKS
NIAGARA FALLS  PTCLDY    79  71  76 SW10      30.14R
BUFFALO        MOCLDY    77  74  90 W8        30.14S
DUNKIRK        PTCLDY    76  72  87 SW7       30.17R
JAMESTOWN      CLOUDY    73  64  73 NW5       30.23R
WELLSVILLE     CLOUDY    72  66  81 W8        30.23S
ROCHESTER      PTCLDY    79  71  76 W7        30.12R
PENN YAN       CLOUDY    78  68  71 VRB3      30.14R
$$

             KEY
       WCI = WIND CHILL INDEX
       VSB = VISIBILITY
       HX  = HEAT INDEX
$$



USA.gov is the U.S. government's official web portal to all federal, state and local government web resources and services.